Keps
Threads by month
- ----- 2024 -----
- September
- August
- July
- June
- May
- April
- March
- February
- January
- ----- 2023 -----
- December
- November
- October
- September
- August
- July
- June
- May
- April
- March
- February
- January
- ----- 2022 -----
- December
- November
- October
- September
- August
- July
- June
- May
- April
- March
- February
- January
- ----- 2021 -----
- December
- November
- October
- September
- August
- July
- June
- May
- April
- March
- February
- January
- ----- 2020 -----
- December
- November
- October
- September
- August
- July
- June
- May
- April
- March
- February
- January
- ----- 2019 -----
- December
- November
- October
- September
- August
- July
- June
- May
- April
- March
- February
- January
- ----- 2018 -----
- December
- November
- October
- September
- August
- July
- June
- May
- April
- March
- February
- January
- ----- 2017 -----
- December
- November
- October
- September
- August
- July
- June
- May
- April
- March
- February
- January
- ----- 2016 -----
- December
- November
- October
- September
- August
- July
- June
- May
- April
- March
- February
- January
- ----- 2015 -----
- December
- November
- October
- September
- August
- July
- June
- May
- April
- March
- February
- January
- ----- 2014 -----
- December
- November
- October
- September
- August
- July
- June
- May
- April
- March
- February
- January
- ----- 2013 -----
- December
- November
- October
- September
- August
- July
- June
- May
- April
- March
- February
- January
- ----- 2012 -----
- December
- November
- October
- September
- August
- July
- June
- May
- April
- March
- February
- January
- ----- 2011 -----
- December
- November
- October
- September
- August
- July
- June
- May
- April
- March
- February
- January
- ----- 2010 -----
- December
- November
- October
- September
- August
- July
- June
- May
- April
- March
- February
- January
- ----- 2009 -----
- December
- November
- October
- September
- August
- July
- June
- May
- April
- March
- February
- January
- ----- 2008 -----
- December
- November
- October
- September
- August
- July
- June
- May
- April
- March
- February
- January
- ----- 2007 -----
- December
- November
- October
- September
- August
- July
- June
- May
- April
- March
- February
- January
- ----- 2006 -----
- December
- November
- October
- September
April 2015
- 1 participants
- 10 discussions
SB KEPS @ AMSAT $ORB15113.N
2Line Orbital Elements 15113.AMSAT
HR AMSAT ORBITAL ELEMENTS FOR AMATEUR SATELLITES IN NASA FORMAT
FROM WA5QGD FORT WORTH,TX April 23, 2015
BID: ORB15113.N
DECODE 2-LINE ELSETS WITH THE FOLLOWING KEY:
1 AAAAAU 00 0 0 BBBBB.BBBBBBBB .CCCCCCCC 00000-0 00000-0 0 DDDZ
2 AAAAA EEE.EEEE FFF.FFFF GGGGGGG HHH.HHHH III.IIII JJ.JJJJJJJJKKKKKZ
KEY: A-CATALOGNUM B-EPOCHTIME C-DECAY D-ELSETNUM E-INCLINATION F-RAAN
G-ECCENTRICITY H-ARGPERIGEE I-MNANOM J-MNMOTION K-ORBITNUM Z-CHECKSUM
TO ALL RADIO AMATEURS BT
AO-07
1 07530U 74089B 15113.35976532 -.00000028 00000-0 97332-4 0 9993
2 07530 101.5160 090.4732 0012378 051.1518 125.4645 12.53613613850380
FO-29
1 24278U 96046B 15112.76858133 .00000004 00000-0 41015-4 0 9998
2 24278 098.5353 089.0724 0349862 214.3709 220.9697 13.53049739922536
SO-33
1 25509U 98061B 15112.51109192 .00000816 00000-0 14698-3 0 9999
2 25509 031.4333 207.2148 0348160 305.2253 051.6247 14.29976209861443
RS-22
1 27939U 03042A 15113.33885722 .00001973 00000-0 36829-3 0 9999
2 27939 097.8351 277.6925 0012623 197.8702 162.2075 14.65968711618153
HO-68
1 36122U 09072B 15113.29115610 -.00000060 00000-0 -43517-4 0 9990
2 36122 100.2018 160.0426 0007284 244.1361 115.9003 13.16326005257234
AO-73
1 39444U 13066AE 15113.13346807 .00004160 00000-0 54046-3 0 9996
2 39444 097.7343 177.9040 0058873 316.1477 043.5069 14.80024819 75272
EO-79
1 40025U 14033R 15113.30917681 .00003832 00000-0 43418-3 0 9997
2 40025 097.9576 013.4883 0013509 010.8689 349.2816 14.86932810 45647
UO-11
1 14781U 84021B 15112.48058379 .00001686 00000-0 21734-3 0 9991
2 14781 097.8073 170.9200 0007260 249.1897 110.8539 14.82314471673773
AO-16
1 20439U 90005D 15112.41770426 .00000372 00000-0 15332-3 0 9992
2 20439 098.5375 049.4416 0010258 331.7303 166.7704 14.32526500318754
LO-19
1 20442U 90005G 15112.40399060 .00000344 00000-0 14243-3 0 9995
2 20442 098.5085 049.1537 0010996 318.3882 041.6465 14.32720422318955
AO-27
1 22825U 93061C 15112.51410444 .00000310 00000-0 13785-3 0 9992
2 22825 098.7038 062.6245 0009504 109.0706 002.4379 14.29866364124980
IO-26
1 22826U 93061D 15112.84120407 .00000372 00000-0 16100-3 0 9998
2 22826 098.6981 063.1259 0010077 101.2025 259.0290 14.30182107125175
GO-32
1 25397U 98043D 15112.45412904 .00000184 00000-0 99346-4 0 9997
2 25397 098.5147 064.6594 0002310 109.5166 037.5857 14.23537040871864
NO-44
1 26931U 01043C 15112.84017457 .00000313 00000-0 15231-3 0 9997
2 26931 067.0514 319.8612 0006053 264.3759 095.6652 14.30296663707889
SO-50
1 27607U 02058C 15113.17569972 .00001832 00000-0 28116-3 0 9999
2 27607 064.5567 006.7634 0078646 299.0141 060.3096 14.74657954663179
CO-55
1 27844U 03031E 15113.02155955 .00000607 00000-0 29556-3 0 9998
2 27844 098.6966 122.3340 0010954 099.6539 318.5832 14.21772508612608
CO-57
1 27848U 03031J 15112.48338603 .00000499 00000-0 24842-3 0 9996
2 27848 098.7064 121.6819 0010809 107.5200 047.4668 14.21422722612434
AO-51
1 28375U 04025K 15112.50883335 .00000486 00000-0 15605-3 0 9999
2 28375 098.2886 054.5665 0083610 137.1048 223.6703 14.41634548568474
CP3
1 31129U 07012N 15112.86468581 .00002269 00000-0 49646-3 0 9993
2 31129 097.9757 081.0481 0097936 125.6476 265.5237 14.55686411425078
CO-65
1 32785U 08021C 15112.53746443 .00003463 00000-0 39501-3 0 9999
2 32785 097.6544 158.1388 0012081 247.3208 251.1354 14.86688763377964
PRISM
1 33493U 09002B 15113.47598293 .00006890 00000-0 66938-3 0 9999
2 33493 098.2522 308.2213 0017201 147.1362 213.0949 14.92840345338413
SOHLA-1
1 33496U 09002E 15112.83593638 .00001168 00000-0 19738-3 0 9998
2 33496 098.2035 240.2763 0005947 351.5670 175.3336 14.71307736335031
TISAT-1
1 36799U 10035E 15113.28710519 .00007089 00000-0 77326-3 0 9999
2 36799 098.0125 213.0465 0013440 032.9843 032.8666 14.88194574258796
STUDSAT
1 36801U 10035G 15112.85423288 .00041534 00000-0 25557-2 0 9990
2 36801 098.0559 229.3362 0004874 324.6759 150.0676 15.09874930259616
ALMASAT-1
1 38078U 12006B 15112.21596399 .00071536 41202-5 12157-2 0 9993
2 38078 069.4595 021.2659 0493451 334.5574 023.1990 14.75550523166776
CUBEBUG-1
1 39153U 13018D 15113.22308255 .00003699 00000-0 50546-3 0 9992
2 39153 098.0172 197.7491 0018647 072.9205 287.4047 14.79070007107352
ESTCUBE-1
1 39161U 13021C 15113.44795240 .00002267 00000-0 37703-3 0 9993
2 39161 098.0719 196.8567 0010778 125.2634 234.9601 14.71037740105199
DUCHIFAT-1
1 40021U 14033M 15113.43284028 .00005635 00000-0 62316-3 0 9990
2 40021 097.9595 013.8625 0014232 010.3966 349.7576 14.87712240 45663
NANOSATCBR1
1 40024U 14033Q 15113.40830805 .00004643 00000-0 51946-3 0 9995
2 40024 097.9584 013.6729 0013595 010.8599 349.2928 14.87335090 45654
DTUSAT-2
1 40030U 14033W 15113.38777574 .00003903 00000-0 44625-3 0 9996
2 40030 097.9562 013.3486 0012282 005.1978 354.9360 14.86550378 45643
ANTELSAT
1 40034U 14033AA 15113.34550562 .00003040 00000-0 47308-3 0 9995
2 40034 097.9504 006.5838 0059384 296.4809 063.0304 14.72558007 45222
MET-2/21
1 22782U 93055A 15112.84636600 .00000070 00000-0 49928-4 0 9999
2 22782 082.5463 287.5840 0023530 115.2862 356.4905 13.83766649 92942
OKEAN-4
1 23317U 94066A 15113.17822801 .00002373 00000-0 26433-3 0 9997
2 23317 082.5360 137.0989 0021171 148.1229 326.6972 14.86548776109144
NOAA-14
1 23455U 94089A 15113.51294916 .00000097 00000-0 73662-4 0 9991
2 23455 098.7531 196.0864 0008624 231.9177 253.8606 14.14035681 47800
NOAA-15
1 25338U 98030A 15113.48282227 .00000366 00000-0 17347-3 0 9997
2 25338 098.7719 112.0863 0010030 333.4405 026.6259 14.25604904881047
RESURS
1 25394U 98043A 15112.85830263 .00000113 00000-0 67114-4 0 9990
2 25394 098.4600 069.9530 0002604 081.8520 330.9645 14.24454234872404
FENGYUN1
1 25730U 99025A 15112.53343605 .00003617 00000-0 19514-2 0 9990
2 25730 098.9416 077.4255 0018533 312.3263 113.7426 14.13231355821199
OKEAN-0
1 25860U 99039A 15112.53508101 .00001668 00000-0 25004-3 0 9999
2 25860 098.0891 080.5119 0001822 102.3821 005.0214 14.75968979847772
NOAA-16
1 26536U 00055A 15113.43265065 .00000076 00000-0 64710-4 0 9999
2 26536 098.9468 179.4506 0010991 033.0575 327.1281 14.13089572751921
NOAA-17
1 27453U 02032A 15113.51694615 .00000182 00000-0 95336-4 0 9997
2 27453 098.3372 102.2295 0011474 349.8827 010.2121 14.24874369666872
NOAA-18
1 28654U 05018A 15113.50735411 .00000274 00000-0 17440-3 0 9998
2 28654 099.1820 104.8244 0015287 112.4401 247.8391 14.12182959511356
NOAA-19
1 33591U 09005A 15113.45914627 .00000364 00000-0 22368-3 0 9991
2 33591 098.9852 063.2212 0013543 328.7384 031.2980 14.11917995319767
HUBBLE
1 20580U 90037B 15112.58851852 .00004541 00000-0 28241-3 0 9990
2 20580 028.4691 160.7121 0002891 006.7346 240.3195 15.07239061171413
ISS
1 25544U 98067A 15113.46767361 .00031361 00000-0 44638-3 0 9993
2 25544 051.6405 357.3979 0005292 254.1759 099.6668 15.56051565939517
CO-58
1 28895U 05043F 15113.26302806 .00002100 00000-0 42009-3 0 9993
2 28895 097.8224 303.9067 0018459 109.3553 250.9647 14.62693590505566
FALCON
1 30776U 07006E 15113.09712098 .00018797 00000-0 77464-3 0 9996
2 30776 035.4270 346.2222 0000901 224.9620 263.9718 15.23259392447891
MAST
1 31126U 07012K 15112.88273399 .00001697 00000-0 37419-3 0 9992
2 31126 097.9556 083.4469 0092474 108.0639 305.0233 14.55965363425445
CAPE1
1 31130U 07012P 15112.84029121 .00002064 00000-0 45527-3 0 9993
2 31130 097.9772 080.5125 0098590 127.5272 233.4937 14.55371821424838
COMPASS
1 32787U 08021E 15113.09423769 .00007243 00000-0 74810-3 0 9998
2 32787 097.6566 162.4518 0012058 230.5572 129.4580 14.90387113378302
